Flag Weather past 2 weeks in Görlitz, Saxony, Germany

Now
52 °F

Fog.


Feels Like: 50 °F
Forecast: 47 / 61 °F
Wind: 6 mph from Southwest

Location: Goerlitz

Current Time: Nov 1, 2014 at 10:01:51 AM

Latest Report: Nov 1, 2014 at 9:00 AM


Visibility: 4 mi

Pressure: 30.22 "Hg

Humidity: 89%

Dew point: 48 °F

Location of GörlitzLocation

Historic Weather in Görlitz — Graph

°F

Görlitz temperature yesterday

Maximum temperature yesterday: 56 °F (at 1:00 PM)
Minimum temperature yesterday: 46 °F (at 6:00 AM)
Average temperature yesterday: 49 °F

Past Weeks' High & Low Weather Summary

 TemperatureHumidityPressure
High63 °F (Oct 18, 2:00 PM)98% (Oct 22, 10:00 PM)30.42 "Hg (Oct 22, 10:00 PM)
Low34 °F (Oct 25, 8:00 AM)29% (Oct 28, 10:00 PM)29.47 "Hg (Oct 22, 12:00 AM)
Average49 °F82%30.14 "Hg
* Reported Oct 17 10:00 AM — Nov 1 9:00 AM, Görlitz, Weather by CustomWeather, © 2014

Note: Actual official high and low records may vary slightly from our data, if they occured in-between our weather recording intervals... More about our weather records

Advertising

Görlitz weather history for previous 24 hours

 ConditionsComfort  
Time TempWeatherWind HumidityBarometerVisibility
9:00 AM
Nov 1
52 °FFog.6 mph89%30.22 "Hg4 mi
8:00 AM50 °FFog.6 mph90%30.22 "Hg4 mi
7:00 AM50 °FOvercast.6 mph89%30.22 "Hg3 mi
6:00 AM50 °FOvercast.2 mph89%30.22 "Hg3 mi
5:00 AM50 °FFog.1 mph88%30.23 "Hg4 mi
4:00 AM50 °FFog.5 mph89%30.24 "Hg4 mi
3:00 AM49 °FFog.3 mph90%30.24 "Hg4 mi
2:00 AM50 °FFog.5 mph89%30.25 "Hg3 mi
1:00 AM49 °FFog.3 mph90%30.26 "Hg3 mi
12:00 AM48 °FFog.2 mph90%30.27 "Hg3 mi
11:00 PM
Oct 31
48 °FFog.3 mph91%30.28 "Hg3 mi
10:00 PM49 °FFog.2 mph88%30.27 "Hg3 mi
9:00 PM48 °FFog.3 mph90%30.29 "Hg3 mi
8:00 PM49 °FFog.3 mph88%30.29 "Hg3 mi
7:00 PM48 °FFog.3 mph87%30.29 "Hg4 mi
6:00 PM50 °FFog.5 mph85%30.29 "Hg4 mi
5:00 PM50 °FOvercast.5 mph85%30.29 "Hg5 mi
4:00 PM52 °FOvercast.5 mph80%30.29 "Hg7 mi
3:00 PM54 °FOvercast.5 mph75%30.29 "Hg9 mi
2:00 PM55 °FOvercast.5 mph72%30.29 "Hg9 mi
1:00 PM56 °FOvercast.5 mph70%30.31 "Hg7 mi
12:00 PM54 °FOvercast.5 mph73%30.32 "Hg7 mi
11:00 AM53 °FPassing clouds.5 mph74%30.33 "Hg7 mi
10:00 AM49 °FPartly sunny.5 mph78%30.34 "Hg6 mi
Weather by CustomWeather, © 2014

See weather overviewHow to use our weather pages